Weather History for Rensselaer, IN

Change the Weather History Date:

Monday, April 7, 2014

  Actual Average (KVPZ) Record (KVPZ)
Temperature  
Mean Temperature 44 °F 46 °F  
Max Temperature 53 °F 56 °F 77 °F (2001)
Min Temperature 35 °F 36 °F 21 °F (2007)
Degree Days  
Heating Degree Days 21 19  
Month to date heating degree days 141  
Since 1 July heating degree days 5718  
Cooling Degree Days 0 0  
Month to date cooling degree days 0  
Year to date cooling degree days 0  
Moisture  
Dew Point 34 °F    
Average Humidity 74    
Maximum Humidity 93    
Minimum Humidity 38    
Precipitation  
Precipitation 0.07 in 0.12 in 1.34 in (2010)
Month to date precipitation 0.69  
Year to date precipitation 6.34  
Sea Level Pressure  
Sea Level Pressure 29.72 in    
Wind  
Wind Speed 7 mph (NNE)    
Max Wind Speed 18 mph    
Max Gust Speed 17 mph    
Visibility 10 miles    
Events Rain    
T = Trace of Precipitation, MM = Missing Value Source: NWS Daily Summary

Daily Weather History Graph

Daily Weather History Graph

Search for Another Location

Airport:

Trip Planner

Search our weather history database for the weather conditions in past years. The results will help you decide how hot, cold, wet, or windy it might be!

Date:

Astronomy

Apr. 07, 2014 Rise Set
Actual Time 6:22 AM CDT 7:20 PM CDT
Civil Twilight 5:54 AM CDT 7:48 PM CDT
Nautical Twilight 5:21 AM CDT 8:21 PM CDT
Astronomical Twilight 4:46 AM CDT 8:56 PM CDT
Moon 12:16 PM CDT (4/7) 1:58 AM CDT (4/7)
Length of Visible Light 13h 53m
Length of Day
12h 57m
First Quarter, 53% of the Moon is Illuminated
Apr 7
First Quarter
Apr 15
Full
Apr 22
Last Quarter
Apr 29
New
May 6
First Quarter

Hourly Weather History & Observations

Time (CDT) Temp. Windchill Dew Point Humidity Pressure Visibility Wind Dir Wind Speed Gust Speed Precip Events Conditions
12:15 AM 37.4 °F 33.8 °F 32.0 °F 81% 29.94 in 10.0 mi ENE 4.6 mph - N/A   Clear
12:35 AM 37.4 °F 32.8 °F 32.0 °F 81% 29.93 in 10.0 mi NE 5.8 mph - N/A   Clear
12:55 AM 37.4 °F 32.8 °F 32.0 °F 81% 29.92 in 10.0 mi NE 5.8 mph - N/A   Clear
1:15 AM 35.6 °F 30.7 °F 32.0 °F 87% 29.92 in 10.0 mi NE 5.8 mph - N/A   Clear
1:35 AM 35.6 °F 29.2 °F 32.0 °F 87% 29.91 in 10.0 mi ENE 8.1 mph - N/A   Clear
1:55 AM 35.6 °F 31.7 °F 32.0 °F 87% 29.90 in 10.0 mi ENE 4.6 mph - N/A   Clear
2:15 AM 37.4 °F 33.8 °F 32.0 °F 81% 29.89 in 10.0 mi NE 4.6 mph - N/A   Clear
2:35 AM 35.6 °F 29.9 °F 32.0 °F 87% 29.87 in 10.0 mi NE 6.9 mph - N/A   Clear
2:55 AM 35.6 °F 29.9 °F 32.0 °F 87% 29.85 in 10.0 mi NE 6.9 mph - N/A   Clear
3:15 AM 35.6 °F 30.7 °F 32.0 °F 87% 29.84 in 10.0 mi ENE 5.8 mph - N/A   Clear
3:35 AM 35.6 °F 29.9 °F 32.0 °F 87% 29.82 in 10.0 mi NE 6.9 mph - N/A   Clear
3:55 AM 35.6 °F 29.2 °F 32.0 °F 87% 29.81 in 10.0 mi NE 8.1 mph - N/A   Clear
4:15 AM 37.4 °F 31.4 °F 32.0 °F 81% 29.80 in 10.0 mi ENE 8.1 mph - N/A   Clear
4:35 AM 37.4 °F 30.8 °F 33.8 °F 87% 29.81 in 10.0 mi ENE 9.2 mph - N/A   Clear
4:55 AM 37.4 °F 32.1 °F 33.8 °F 87% 29.81 in 10.0 mi ENE 6.9 mph - N/A   Clear
5:15 AM 37.4 °F 32.8 °F 33.8 °F 87% 29.82 in 10.0 mi ENE 5.8 mph - N/A   Clear
5:35 AM 37.4 °F 32.8 °F 33.8 °F 87% 29.83 in 10.0 mi ENE 5.8 mph - N/A   Clear
5:55 AM 37.4 °F 33.8 °F 33.8 °F 87% 29.83 in 10.0 mi NE 4.6 mph - N/A   Scattered Clouds
6:15 AM 37.4 °F 33.8 °F 33.8 °F 87% 29.84 in 10.0 mi NNE 4.6 mph - N/A   Scattered Clouds
6:35 AM 37.4 °F 33.8 °F 33.8 °F 87% 29.84 in 10.0 mi NNE 4.6 mph - N/A   Scattered Clouds
6:55 AM 37.4 °F 32.8 °F 33.8 °F 87% 29.83 in 10.0 mi NNE 5.8 mph - N/A   Mostly Cloudy
7:15 AM 39.2 °F 35.0 °F 33.8 °F 81% 29.82 in 10.0 mi NNE 5.8 mph - N/A   Mostly Cloudy
7:35 AM 41.0 °F 35.2 °F 33.8 °F 76% 29.81 in 10.0 mi NNE 9.2 mph - N/A   Overcast
7:55 AM 41.0 °F 34.7 °F 33.8 °F 76% 29.79 in 10.0 mi North 10.4 mph - N/A   Overcast
8:15 AM 42.8 °F 37.5 °F 33.8 °F 70% 29.79 in 10.0 mi NNE 9.2 mph - N/A   Overcast
8:35 AM 42.8 °F 36.6 °F 33.8 °F 70% 29.75 in 10.0 mi NNE 11.5 mph - N/A   Overcast
8:55 AM 42.8 °F 39.3 °F 33.8 °F 70% 29.76 in 10.0 mi ENE 5.8 mph - N/A   Overcast
9:15 AM 42.8 °F 39.3 °F 32.0 °F 66% 29.75 in 10.0 mi NNE 5.8 mph - N/A   Overcast
9:35 AM 44.6 °F 41.4 °F 33.8 °F 66% 29.74 in 10.0 mi North 5.8 mph - N/A   Overcast
9:55 AM 46.4 °F 41.1 °F 32.0 °F 57% 29.73 in 10.0 mi NNE 11.5 mph - N/A   Overcast
10:15 AM 50.0 °F - 30.2 °F 47% 29.71 in 10.0 mi NE 13.8 mph - N/A   Mostly Cloudy
10:35 AM 50.0 °F - 30.2 °F 47% 29.70 in 10.0 mi NE 15.0 mph - N/A   Scattered Clouds
11:15 AM 51.8 °F - 30.2 °F 44% 29.67 in 10.0 mi NE 15.0 mph - N/A   Overcast
11:35 AM 51.8 °F - 28.4 °F 41% 29.66 in 10.0 mi NE 18.4 mph - N/A   Overcast
11:55 AM 53.6 °F - 28.4 °F 38% 29.64 in 10.0 mi NE 16.1 mph - N/A   Overcast
12:15 PM 53.6 °F - 28.4 °F 38% 29.64 in 10.0 mi NE 17.3 mph - N/A   Overcast
12:35 PM 53.6 °F - 32.0 °F 44% 29.61 in 10.0 mi North 10.4 mph - N/A   Overcast
12:55 PM 51.8 °F - 32.0 °F 47% 29.61 in 10.0 mi North 13.8 mph - N/A   Overcast
1:15 PM 51.8 °F - 30.2 °F 44% 29.61 in 10.0 mi North 9.2 mph - N/A   Overcast
1:35 PM 50.0 °F - 32.0 °F 50% 29.61 in 10.0 mi North 10.4 mph - N/A   Overcast
1:55 PM 50.0 °F - 32.0 °F 50% 29.61 in 10.0 mi North 10.4 mph - N/A   Overcast
2:15 PM 50.0 °F - 30.2 °F 47% 29.61 in 10.0 mi North 9.2 mph - N/A Rain Light Rain
2:35 PM 48.2 °F - 32.0 °F 54% 29.62 in 10.0 mi North 9.2 mph 16.1 mph N/A Rain Light Rain
3:15 PM 46.4 °F 42.9 °F 33.8 °F 62% 29.61 in 10.0 mi NNW 6.9 mph - N/A Rain Light Rain
3:55 PM 46.4 °F 41.9 °F 35.6 °F 66% 29.60 in 10.0 mi North 9.2 mph - N/A Rain Light Rain
4:15 PM 44.6 °F 38.4 °F 37.4 °F 76% 29.60 in 10.0 mi North 12.7 mph 17.3 mph 0.02 in Rain Rain
4:35 PM 44.6 °F 40.2 °F 39.2 °F 81% 29.60 in 10.0 mi North 8.1 mph - 0.05 in Rain Rain
4:55 PM 44.6 °F 40.7 °F 41.0 °F 87% 29.60 in 5.0 mi NW 6.9 mph - 0.06 in Rain Rain
5:15 PM 44.6 °F 42.2 °F 41.0 °F 87% 29.61 in 5.0 mi NNW 4.6 mph - 0.01 in Rain Rain
5:35 PM 44.6 °F 42.2 °F 41.0 °F 87% 29.61 in 7.0 mi NW 4.6 mph - 0.01 in   Drizzle
5:55 PM 42.8 °F 41.1 °F 41.0 °F 93% 29.61 in 7.0 mi NW 3.5 mph - 0.01 in   Drizzle
6:15 PM 42.8 °F 39.3 °F 41.0 °F 93% 29.61 in 7.0 mi NNW 5.8 mph - N/A   Light Drizzle
6:35 PM 42.8 °F 39.3 °F 39.2 °F 87% 29.60 in 7.0 mi NNW 5.8 mph - N/A   Light Drizzle
6:55 PM 42.8 °F 38.6 °F 37.4 °F 81% 29.59 in 7.0 mi NW 6.9 mph - N/A   Overcast
7:15 PM 42.8 °F 38.6 °F 37.4 °F 81% 29.60 in 7.0 mi NNW 6.9 mph - N/A   Overcast
7:35 PM 41.0 °F 37.1 °F 35.6 °F 81% 29.60 in 7.0 mi NNW 5.8 mph - N/A   Overcast
7:55 PM 41.0 °F 37.1 °F 35.6 °F 81% 29.60 in 10.0 mi North 5.8 mph - N/A   Overcast
8:15 PM 41.0 °F 37.1 °F 35.6 °F 81% 29.61 in 7.0 mi NNW 5.8 mph - N/A   Overcast
8:55 PM 41.0 °F 37.1 °F 35.6 °F 81% 29.63 in 10.0 mi NW 5.8 mph - N/A   Overcast
9:15 PM 41.0 °F 37.1 °F 35.6 °F 81% 29.64 in 10.0 mi NW 5.8 mph - N/A   Overcast
9:35 PM 41.0 °F 38.0 °F 33.8 °F 76% 29.64 in 10.0 mi NNW 4.6 mph - N/A   Overcast
9:55 PM 41.0 °F 37.1 °F 33.8 °F 76% 29.64 in 10.0 mi NW 5.8 mph - N/A   Overcast
10:15 PM 39.2 °F 37.0 °F 33.8 °F 81% 29.65 in 10.0 mi NW 3.5 mph - N/A   Overcast
10:35 PM 41.0 °F 37.1 °F 35.6 °F 81% 29.65 in 10.0 mi West 5.8 mph - N/A   Overcast
10:55 PM 41.0 °F 36.4 °F 33.8 °F 76% 29.65 in 10.0 mi WNW 6.9 mph - N/A   Overcast
11:15 PM 41.0 °F 39.0 °F 33.8 °F 76% 29.66 in 10.0 mi NW 3.5 mph - N/A   Overcast
11:35 PM 41.0 °F 38.0 °F 33.8 °F 76% 29.66 in 10.0 mi WNW 4.6 mph - N/A   Overcast
11:55 PM 39.2 °F 35.0 °F 33.8 °F 81% 29.66 in 10.0 mi WSW 5.8 mph - N/A   Scattered Clouds